Location: Unspecified
(0.0000°N, 0.0000°E)
Time: 08:06:20
(UTC+01:00)

CZ-4B DEB - Visible Passes

Search period start: 06 February 2016 00:00
Search period end: 16 February 2016 00:00
Orbit: 453 x 460 km, 97.5° (Epoch: 05 February)

Date Brightness Start Highest point End Pass type
(mag) Time Alt. Az. Time Alt. Az. Time Alt. Az.
06 Feb 2.8 20:10:04 10° SSE 20:13:27 74° E 20:16:51 10° N visible
07 Feb 4.4 19:38:13 10° SE 19:40:39 18° ENE 19:43:04 10° NNE visible
08 Feb 4.7 20:37:17 10° SSW 20:40:23 33° WSW 20:43:29 10° NW visible
09 Feb 2.9 20:04:09 10° SSE 20:07:29 55° E 20:10:49 10° N visible
10 Feb 6.4 21:05:45 10° SW 21:07:08 12° WSW 21:08:32 10° WNW visible
11 Feb 4.1 20:30:53 10° S 20:34:09 44° WSW 20:37:25 10° NNW visible
12 Feb 3.3 19:57:53 10° SSE 20:01:07 40° E 20:04:21 10° N visible
13 Feb 6.1 20:58:31 10° SW 21:00:38 16° WSW 21:02:46 10° WNW visible
14 Feb 3.4 20:24:10 10° S 20:27:32 60° WSW 20:30:54 10° NNW visible
15 Feb 3.7 19:51:21 10° SE 19:54:22 30° E 19:57:23 10° NNE visible
